Hourly Weather Etchmiadzin

Today, 8 July, Wednesday

Time Temperature Precipitation Wind Pressure Humidity
00:00 +26°C° 0 mm 1 mps 684 mmHg 44%
01:00 +25°C° 0 mm 1 mps 683 mmHg 46%
02:00 +24°C° 0 mm 1 mps 683 mmHg 48%
03:00 +24°C° 0 mm 1 mps 683 mmHg 51%
04:00 +24°C° 0 mm 2 mps 683 mmHg 50%
05:00 +25°C° 0 mm 2 mps 683 mmHg 49%
06:00 +26°C° 0 mm 2 mps 684 mmHg 48%
07:00 +27°C° 0 mm 2 mps 684 mmHg 44%
08:00 +29°C° 0 mm 2 mps 684 mmHg 39%
09:00 +31°C° 0 mm 1 mps 684 mmHg 34%
10:00 +34°C° 0 mm 2 mps 684 mmHg 30%
11:00 +35°C° 0 mm 3 mps 684 mmHg 27%
12:00 +37°C° 0 mm 3 mps 684 mmHg 24%
13:00 +37°C° 0 mm 3 mps 684 mmHg 22%
14:00 +38°C° 0 mm 2 mps 684 mmHg 21%
15:00 +39°C° 0 mm 2 mps 684 mmHg 19%
16:00 +38°C° 0 mm 2 mps 684 mmHg 21%
17:00 +37°C° 0 mm 2 mps 684 mmHg 24%
18:00 +36°C° 0 mm 2 mps 684 mmHg 26%
19:00 +34°C° 0 mm 3 mps 684 mmHg 32%
20:00 +30°C° 0 mm 4 mps 684 mmHg 37%
21:00 +28°C° 0 mm 4 mps 684 mmHg 43%
22:00 +27°C° 0 mm 4 mps 684 mmHg 45%
23:00 +26°C° 0 mm 3 mps 684 mmHg 47%

Tomorrow, 9 July, Thursday

Time Temperature Precipitation Wind Pressure Humidity
00:00 +25°C° 0 mm 3 mps 684 mmHg 49%
01:00 +25°C° 0 mm 3 mps 684 mmHg 51%
02:00 +24°C° 0 mm 3 mps 684 mmHg 53%
03:00 +23°C° 0 mm 2 mps 684 mmHg 55%
04:00 +24°C° 0 mm 2 mps 684 mmHg 54%
05:00 +24°C° 0 mm 2 mps 685 mmHg 54%
06:00 +25°C° 0 mm 2 mps 685 mmHg 53%
07:00 +26°C° 0 mm 2 mps 685 mmHg 49%
08:00 +28°C° 0 mm 3 mps 685 mmHg 44%
09:00 +30°C° 0 mm 3 mps 685 mmHg 40%
10:00 +31°C° 0.1 mm 2 mps 685 mmHg 36%
11:00 +34°C° 0.1 mm 2 mps 685 mmHg 33%
12:00 +35°C° 0.1 mm 2 mps 685 mmHg 29%
13:00 +36°C° 0.1 mm 2 mps 685 mmHg 28%
14:00 +37°C° 0.1 mm 3 mps 685 mmHg 27%
15:00 +37°C° 0.1 mm 3 mps 685 mmHg 25%
16:00 +35°C° 0.3 mm 3 mps 685 mmHg 32%
17:00 +33°C° 0.3 mm 4 mps 684 mmHg 38%
18:00 +29°C° 0.3 mm 4 mps 684 mmHg 45%
19:00 +28°C° 0.1 mm 4 mps 685 mmHg 49%
20:00 +26°C° 0.1 mm 3 mps 685 mmHg 54%
21:00 +25°C° 0.1 mm 2 mps 685 mmHg 58%
22:00 +24°C° 0.2 mm 2 mps 685 mmHg 60%
23:00 +24°C° 0.2 mm 2 mps 685 mmHg 63%

Day after tomorrow, 10 July, Friday

Time Temperature Precipitation Wind Pressure Humidity
00:00 +23°C° 0.2 mm 1 mps 685 mmHg 65%
01:00 +23°C° 0.3 mm 1 mps 685 mmHg 67%
02:00 +22°C° 0.3 mm 1 mps 685 mmHg 70%
03:00 +22°C° 0.3 mm 1 mps 685 mmHg 72%
04:00 +22°C° 0.5 mm 1 mps 685 mmHg 70%
05:00 +23°C° 0.5 mm 1 mps 685 mmHg 69%
06:00 +23°C° 0.5 mm 1 mps 686 mmHg 67%
07:00 +25°C° 0.2 mm 1 mps 686 mmHg 62%
08:00 +26°C° 0.2 mm 2 mps 686 mmHg 57%
09:00 +28°C° 0.2 mm 2 mps 686 mmHg 52%
10:00 +29°C° 0.1 mm 2 mps 686 mmHg 47%
11:00 +30°C° 0.1 mm 2 mps 686 mmHg 43%
12:00 +32°C° 0.1 mm 1 mps 686 mmHg 38%
13:00 +34°C° 0.2 mm 2 mps 686 mmHg 36%
14:00 +34°C° 0.2 mm 2 mps 685 mmHg 33%
15:00 +35°C° 0.2 mm 2 mps 685 mmHg 31%
16:00 +35°C° 0.1 mm 2 mps 685 mmHg 32%
17:00 +34°C° 0.1 mm 3 mps 686 mmHg 34%
18:00 +34°C° 0.1 mm 3 mps 686 mmHg 36%
19:00 +30°C° 1.1 mm 3 mps 686 mmHg 46%
20:00 +27°C° 1.1 mm 3 mps 686 mmHg 57%
21:00 +24°C° 1.1 mm 3 mps 686 mmHg 68%
22:00 +24°C° 1.3 mm 2 mps 686 mmHg 70%
23:00 +24°C° 1.3 mm 1 mps 686 mmHg 73%

11 July, Saturday

Time Temperature Precipitation Wind Pressure Humidity
00:00 +23°C° 1.3 mm 1 mps 686 mmHg 75%
01:00 +23°C° 0.5 mm 1 mps 685 mmHg 75%
02:00 +23°C° 0.5 mm 1 mps 685 mmHg 76%
03:00 +22°C° 0.5 mm 1 mps 685 mmHg 76%
04:00 +23°C° 0.3 mm 1 mps 686 mmHg 75%
05:00 +23°C° 0.3 mm 1 mps 686 mmHg 73%
06:00 +23°C° 0.3 mm 1 mps 686 mmHg 72%
07:00 +25°C° 0.3 mm 1 mps 686 mmHg 67%
08:00 +26°C° 0.3 mm 1 mps 686 mmHg 62%
09:00 +27°C° 0.3 mm 1 mps 686 mmHg 57%
10:00 +29°C° 0.4 mm 1 mps 686 mmHg 51%
11:00 +30°C° 0.4 mm 2 mps 686 mmHg 46%
12:00 +32°C° 0.4 mm 2 mps 686 mmHg 41%
13:00 +32°C° 0.2 mm 2 mps 685 mmHg 38%
14:00 +34°C° 0.2 mm 2 mps 685 mmHg 35%
15:00 +35°C° 0.2 mm 2 mps 685 mmHg 32%
16:00 +33°C° 0.4 mm 3 mps 685 mmHg 39%
17:00 +30°C° 0.4 mm 4 mps 684 mmHg 46%
18:00 +28°C° 0.4 mm 5 mps 684 mmHg 53%
19:00 +27°C° 0.6 mm 4 mps 684 mmHg 57%
20:00 +25°C° 0.6 mm 2 mps 685 mmHg 62%
21:00 +24°C° 0.6 mm 1 mps 685 mmHg 66%
22:00 +24°C° 0.4 mm 1 mps 685 mmHg 67%
23:00 +24°C° 0.4 mm 1 mps 685 mmHg 69%

12 July, Sunday

Time Temperature Precipitation Wind Pressure Humidity
00:00 +23°C° 0.4 mm 1 mps 685 mmHg 70%
01:00 +23°C° 0.1 mm 1 mps 684 mmHg 72%
02:00 +23°C° 0.1 mm 1 mps 684 mmHg 73%
03:00 +22°C° 0.1 mm 1 mps 684 mmHg 75%
04:00 +23°C° 0.1 mm 1 mps 684 mmHg 73%
05:00 +23°C° 0.1 mm 1 mps 684 mmHg 70%
06:00 +23°C° 0.1 mm 1 mps 684 mmHg 68%
07:00 +25°C° 0.1 mm 1 mps 684 mmHg 63%
08:00 +26°C° 0.1 mm 1 mps 684 mmHg 58%
09:00 +28°C° 0.1 mm 1 mps 684 mmHg 53%
10:00 +29°C° 0.2 mm 1 mps 684 mmHg 48%
11:00 +30°C° 0.2 mm 2 mps 684 mmHg 43%
12:00 +32°C° 0.2 mm 2 mps 684 mmHg 39%
13:00 +34°C° 0.1 mm 2 mps 684 mmHg 36%
14:00 +34°C° 0.1 mm 2 mps 684 mmHg 33%
15:00 +35°C° 0.1 mm 2 mps 684 mmHg 30%
16:00 +35°C° 0.1 mm 2 mps 683 mmHg 33%
17:00 +33°C° 0.1 mm 1 mps 683 mmHg 35%
18:00 +32°C° 0.1 mm 1 mps 683 mmHg 38%
19:00 +31°C° 0 mm 1 mps 683 mmHg 42%
20:00 +29°C° 0 mm 2 mps 683 mmHg 45%
21:00 +27°C° 0 mm 3 mps 684 mmHg 49%
22:00 +26°C° 0 mm 2 mps 683 mmHg 52%
23:00 +25°C° 0 mm 2 mps 683 mmHg 54%

13 July, Monday

Time Temperature Precipitation Wind Pressure Humidity
00:00 +25°C° 0 mm 2 mps 683 mmHg 56%
01:00 +24°C° 0.2 mm 2 mps 683 mmHg 58%
02:00 +24°C° 0.2 mm 2 mps 683 mmHg 60%
03:00 +23°C° 0.2 mm 2 mps 682 mmHg 62%
04:00 +23°C° 0.2 mm 2 mps 682 mmHg 62%
05:00 +24°C° 0.2 mm 1 mps 683 mmHg 61%
06:00 +24°C° 0.2 mm 1 mps 683 mmHg 61%
07:00 +26°C° 0.1 mm 1 mps 683 mmHg 56%
08:00 +28°C° 0.1 mm 1 mps 683 mmHg 50%
09:00 +29°C° 0.1 mm 1 mps 683 mmHg 44%
10:00 +31°C° 0.1 mm 1 mps 683 mmHg 41%
11:00 +32°C° 0.1 mm 1 mps 683 mmHg 38%
12:00 +33°C° 0.1 mm 1 mps 683 mmHg 34%
13:00 +35°C° 0 mm 2 mps 683 mmHg 32%
14:00 +36°C° 0 mm 2 mps 682 mmHg 30%
15:00 +36°C° 0 mm 3 mps 682 mmHg 28%
16:00 +34°C° 0.2 mm 3 mps 682 mmHg 33%
17:00 +33°C° 0.2 mm 4 mps 682 mmHg 37%
18:00 +30°C° 0.2 mm 4 mps 682 mmHg 42%
19:00 +28°C° 0.1 mm 4 mps 683 mmHg 44%
20:00 +27°C° 0.1 mm 3 mps 683 mmHg 47%
21:00 +26°C° 0.1 mm 3 mps 684 mmHg 50%
22:00 +25°C° 0 mm 3 mps 683 mmHg 52%
23:00 +24°C° 0 mm 2 mps 683 mmHg 54%
Show more